Location: Brno
(49.2000°N, 16.6330°E)
Time: 23:40:55
(UTC+02:00)

X-37B - Pass Details

Date: 17 June 2021
Orbit: 383 x 392 km, 45.0° (Epoch: 01 July)

Event Time Altitude Azimuth Distance (km) Brightness Sun altitude
Exits shadow 03:44:20 - 255° (WSW) 1,624 3.2 -8.2°
Reaches altitude 10° 03:44:53 10° 252° (WSW) 1,406 2.9 -8.1°
Maximum altitude 03:47:51 38° 183° (S) 606 1.2 -7.8°
Drops below altitude 10° 03:50:50 10° 113° (ESE) 1,409 3.6 -7.5°
Sets 03:52:58 0° 105° (ESE) 2,265 4.8 -7.3°
